Time,TemperatureF,DewpointF,PressureIn,WindDirection,WindDirectionDegrees,WindSpeedMPH,WindSpeedGustMPH,Humidity,HourlyPrecipIn,Conditions,Clouds,dailyrainin,SoftwareType,DateUTC
2013-01-17 00:02:00,35.0,29.0,30.19,West,265,3.0,6.0,80,0.00,,,0.00,,2013-01-17 07:02:00,
2013-01-17 00:12:00,35.0,29.0,30.19,West,265,3.0,6.0,80,0.00,,,0.00,,2013-01-17 07:12:00,
2013-01-17 00:22:00,34.0,29.0,30.20,WSW,255,4.0,7.0,81,0.00,,,0.00,,2013-01-17 07:22:00,
2013-01-17 00:32:00,34.0,29.0,30.21,WSW,252,4.0,7.0,81,0.00,,,0.00,,2013-01-17 07:32:00,
2013-01-17 00:42:00,34.0,29.0,30.21,WSW,252,4.0,7.0,81,0.00,,,0.00,,2013-01-17 07:42:00,
2013-01-17 00:52:00,34.0,29.0,30.21,WSW,252,2.0,5.0,81,0.00,,,0.00,,2013-01-17 07:52:00,
2013-01-17 01:02:00,34.0,29.0,30.21,WSW,252,3.0,5.0,81,0.00,,,0.00,,2013-01-17 08:02:00,
2013-01-17 01:12:00,34.0,29.0,30.21,WSW,252,3.0,5.0,81,0.00,,,0.00,,2013-01-17 08:12:00,
2013-01-17 01:22:00,34.0,29.0,30.22,WSW,252,2.0,5.0,82,0.00,,,0.00,,2013-01-17 08:22:00,
2013-01-17 01:32:00,34.0,29.0,30.22,WSW,252,5.0,6.0,82,0.00,,,0.00,,2013-01-17 08:32:00,
2013-01-17 01:43:00,34.0,29.0,30.22,WSW,252,5.0,6.0,82,0.00,,,0.00,,2013-01-17 08:43:00,
2013-01-17 01:53:00,34.0,29.0,30.22,WSW,250,3.0,7.0,82,0.00,,,0.00,,2013-01-17 08:53:00,
2013-01-17 02:02:00,34.0,29.0,30.23,West,263,5.0,9.0,82,0.00,,,0.00,,2013-01-17 09:02:00,
2013-01-17 02:12:00,34.0,29.0,30.23,West,263,5.0,9.0,82,0.00,,,0.00,,2013-01-17 09:12:00,
2013-01-17 02:22:00,34.0,29.0,30.23,WSW,254,5.0,8.0,83,0.00,,,0.00,,2013-01-17 09:22:00,
2013-01-17 02:32:00,34.0,29.0,30.23,West,263,5.0,9.0,83,0.00,,,0.00,,2013-01-17 09:32:00,
2013-01-17 02:42:00,34.0,29.0,30.23,West,263,5.0,9.0,83,0.00,,,0.00,,2013-01-17 09:42:00,
2013-01-17 02:52:00,34.0,29.0,30.24,WSW,240,2.0,7.0,83,0.00,,,0.00,,2013-01-17 09:52:00,
2013-01-17 03:02:00,33.0,28.0,30.23,WSW,240,3.0,5.0,83,0.00,,,0.00,,2013-01-17 10:02:00,
2013-01-17 03:12:00,33.0,28.0,30.23,WSW,240,3.0,5.0,83,0.00,,,0.00,,2013-01-17 10:12:00,
2013-01-17 03:22:00,33.0,29.0,30.23,WSW,240,2.0,3.0,84,0.00,,,0.00,,2013-01-17 10:22:00,
2013-01-17 03:32:00,33.0,28.0,30.23,WSW,240,2.0,5.0,83,0.00,,,0.00,,2013-01-17 10:32:00,
2013-01-17 03:42:00,33.0,28.0,30.23,WSW,240,2.0,5.0,83,0.00,,,0.00,,2013-01-17 10:42:00,
2013-01-17 03:53:00,33.0,28.0,30.23,WSW,242,0.0,3.0,83,0.00,,,0.00,,2013-01-17 10:53:00,
2013-01-17 04:02:00,33.0,28.0,30.23,WSW,242,0.0,2.0,83,0.00,,,0.00,,2013-01-17 11:02:00,
2013-01-17 04:12:00,33.0,28.0,30.23,WSW,242,0.0,2.0,83,0.00,,,0.00,,2013-01-17 11:12:00,
2013-01-17 04:22:00,33.0,28.0,30.23,WSW,242,3.0,3.0,83,0.00,,,0.00,,2013-01-17 11:22:00,
2013-01-17 04:32:00,32.0,27.0,30.23,WSW,242,2.0,3.0,83,0.00,,,0.00,,2013-01-17 11:32:00,
2013-01-17 04:42:00,32.0,27.0,30.23,WSW,242,2.0,3.0,83,0.00,,,0.00,,2013-01-17 11:42:00,
2013-01-17 04:53:00,32.0,27.0,30.22,WSW,242,2.0,3.0,83,0.00,,,0.00,,2013-01-17 11:53:00,
2013-01-17 05:02:00,32.0,27.0,30.22,WSW,242,2.0,3.0,83,0.00,,,0.00,,2013-01-17 12:02:00,
2013-01-17 05:12:00,32.0,27.0,30.22,WSW,242,2.0,3.0,83,0.00,,,0.00,,2013-01-17 12:12:00,
2013-01-17 05:22:00,32.0,27.0,30.21,SSE,165,0.0,5.0,83,0.00,,,0.00,,2013-01-17 12:22:00,
2013-01-17 05:32:00,32.0,27.0,30.21,SSE,165,0.0,2.0,83,0.00,,,0.00,,2013-01-17 12:32:00,
2013-01-17 05:42:00,32.0,27.0,30.21,SSE,165,0.0,2.0,83,0.00,,,0.00,,2013-01-17 12:42:00,
2013-01-17 05:53:00,30.0,26.0,30.20,SSE,161,0.0,3.0,84,0.00,,,0.00,,2013-01-17 12:53:00,
2013-01-17 06:03:00,30.0,26.0,30.20,SSE,161,2.0,3.0,84,0.00,,,0.00,,2013-01-17 13:03:00,
2013-01-17 06:12:00,30.0,26.0,30.20,SSE,161,2.0,3.0,84,0.00,,,0.00,,2013-01-17 13:12:00,
2013-01-17 06:22:00,30.0,26.0,30.19,SSE,161,0.0,2.0,85,0.00,,,0.00,,2013-01-17 13:22:00,
2013-01-17 06:33:00,30.0,26.0,30.19,SSE,161,1.0,2.0,86,0.00,,,0.00,,2013-01-17 13:33:00,
2013-01-17 06:43:00,30.0,26.0,30.19,SSE,161,1.0,2.0,86,0.00,,,0.00,,2013-01-17 13:43:00,
2013-01-17 06:53:00,30.0,26.0,30.19,SSE,161,3.0,3.0,86,0.00,,,0.00,,2013-01-17 13:53:00,
2013-01-17 07:03:00,30.0,27.0,30.19,SSE,161,0.0,3.0,87,0.00,,,0.00,,2013-01-17 14:03:00,
2013-01-17 07:12:00,30.0,27.0,30.19,SSE,161,0.0,3.0,87,0.00,,,0.00,,2013-01-17 14:12:00,
2013-01-17 07:23:00,30.0,27.0,30.18,SSE,161,1.0,2.0,87,0.00,,,0.00,,2013-01-17 14:23:00,
2013-01-17 07:33:00,29.0,26.0,30.18,SSE,161,0.0,2.0,87,0.00,,,0.00,,2013-01-17 14:33:00,
2013-01-17 07:42:00,29.0,26.0,30.18,SSE,161,0.0,2.0,87,0.00,,,0.00,,2013-01-17 14:42:00,
2013-01-17 07:53:00,29.0,26.0,30.18,SSE,161,0.0,2.0,87,0.00,,,0.00,,2013-01-17 14:53:00,
2013-01-17 08:03:00,28.0,25.0,30.19,SSE,161,2.0,3.0,87,0.00,,,0.00,,2013-01-17 15:03:00,
2013-01-17 08:12:00,28.0,25.0,30.19,SSE,161,2.0,3.0,87,0.00,,,0.00,,2013-01-17 15:12:00,
2013-01-17 08:23:00,27.0,24.0,30.19,SSE,160,3.0,3.0,87,0.00,,,0.00,,2013-01-17 15:23:00,
2013-01-17 08:33:00,27.0,24.0,30.19,ESE,112,5.0,6.0,87,0.00,,,0.00,,2013-01-17 15:33:00,
2013-01-17 08:43:00,27.0,24.0,30.19,ESE,112,5.0,6.0,87,0.00,,,0.00,,2013-01-17 15:43:00,
2013-01-17 08:53:00,29.0,26.0,30.16,East,86,7.0,10.0,88,0.00,,,0.00,,2013-01-17 15:53:00,
2013-01-17 09:02:00,29.0,26.0,30.16,ENE,67,6.0,9.0,88,0.00,,,0.00,,2013-01-17 16:02:00,
2013-01-17 09:12:00,29.0,26.0,30.16,ENE,67,6.0,9.0,88,0.00,,,0.00,,2013-01-17 16:12:00,
2013-01-17 09:22:00,29.0,26.0,30.16,ENE,67,6.0,9.0,88,0.00,,,0.00,,2013-01-17 16:22:00,
2013-01-17 09:33:00,29.0,26.0,30.16,East,94,6.0,10.0,88,0.00,,,0.00,,2013-01-17 16:33:00,
2013-01-17 09:43:00,29.0,26.0,30.16,East,94,6.0,10.0,88,0.00,,,0.00,,2013-01-17 16:43:00,
2013-01-17 09:53:00,30.0,26.0,30.16,East,98,6.0,12.0,86,0.00,,,0.00,,2013-01-17 16:53:00,
2013-01-17 10:03:00,30.0,26.0,30.14,East,98,5.0,7.0,86,0.00,,,0.00,,2013-01-17 17:03:00,
2013-01-17 10:12:00,30.0,26.0,30.14,East,98,5.0,7.0,86,0.00,,,0.00,,2013-01-17 17:12:00,
2013-01-17 10:22:00,31.0,27.0,30.12,East,99,5.0,10.0,85,0.00,,,0.00,,2013-01-17 17:22:00,
2013-01-17 10:33:00,31.0,27.0,30.13,NE,50,6.0,7.0,84,0.00,,,0.00,,2013-01-17 17:33:00,
2013-01-17 10:43:00,31.0,27.0,30.13,NE,50,6.0,7.0,84,0.00,,,0.00,,2013-01-17 17:43:00,
2013-01-17 10:53:00,32.0,27.0,30.13,ESE,113,9.0,12.0,82,0.00,,,0.00,,2013-01-17 17:53:00,
2013-01-17 11:03:00,32.0,27.0,30.11,ESE,113,8.0,12.0,81,0.00,,,0.00,,2013-01-17 18:03:00,
2013-01-17 11:12:00,32.0,27.0,30.11,ESE,113,8.0,12.0,81,0.00,,,0.00,,2013-01-17 18:12:00,
2013-01-17 11:22:00,32.0,27.0,30.10,ESE,108,9.0,12.0,82,0.00,,,0.00,,2013-01-17 18:22:00,
2013-01-17 11:33:00,32.0,27.0,30.10,East,80,4.0,9.0,81,0.00,,,0.00,,2013-01-17 18:33:00,
2013-01-17 11:43:00,32.0,27.0,30.10,East,80,4.0,9.0,81,0.00,,,0.00,,2013-01-17 18:43:00,
2013-01-17 11:53:00,32.0,27.0,30.09,East,87,5.0,7.0,80,0.00,,,0.00,,2013-01-17 18:53:00,
2013-01-17 12:03:00,33.0,27.0,30.09,East,90,6.0,7.0,79,0.00,,,0.00,,2013-01-17 19:03:00,
2013-01-17 12:12:00,33.0,27.0,30.09,East,90,6.0,7.0,79,0.00,,,0.00,,2013-01-17 19:12:00,
2013-01-17 12:23:00,33.0,27.0,30.06,East,86,6.0,7.0,78,0.00,,,0.00,,2013-01-17 19:23:00,
2013-01-17 12:33:00,34.0,28.0,30.06,East,83,5.0,7.0,77,0.00,,,0.00,,2013-01-17 19:33:00,
2013-01-17 12:43:00,34.0,28.0,30.06,East,83,5.0,7.0,77,0.00,,,0.00,,2013-01-17 19:43:00,
2013-01-17 12:53:00,33.0,27.0,30.06,East,88,7.0,10.0,79,0.00,,,0.00,,2013-01-17 19:53:00,
2013-01-17 13:03:00,33.0,27.0,30.04,East,93,5.0,9.0,79,0.00,,,0.00,,2013-01-17 20:03:00,
2013-01-17 13:12:00,33.0,27.0,30.04,East,93,5.0,9.0,79,0.00,,,0.00,,2013-01-17 20:12:00,
2013-01-17 13:23:00,33.0,27.0,30.04,ENE,76,5.0,9.0,78,0.00,,,0.00,,2013-01-17 20:23:00,
2013-01-17 13:33:00,34.0,28.0,30.02,ENE,76,4.0,7.0,77,0.00,,,0.00,,2013-01-17 20:33:00,
2013-01-17 13:43:00,34.0,28.0,30.02,ENE,76,4.0,7.0,77,0.00,,,0.00,,2013-01-17 20:43:00,
2013-01-17 13:54:00,35.0,28.0,30.02,ENE,76,3.0,5.0,74,0.00,,,0.00,,2013-01-17 20:54:00,
2013-01-17 14:03:00,36.0,28.0,30.01,ENE,76,3.0,3.0,73,0.00,,,0.00,,2013-01-17 21:03:00,
2013-01-17 14:12:00,36.0,28.0,30.01,ENE,76,3.0,3.0,73,0.00,,,0.00,,2013-01-17 21:12:00,
2013-01-17 14:23:00,36.0,28.0,29.99,ENE,76,2.0,3.0,73,0.00,,,0.00,,2013-01-17 21:23:00,
2013-01-17 14:33:00,36.0,29.0,29.99,ENE,76,0.0,3.0,74,0.00,,,0.00,,2013-01-17 21:33:00,
2013-01-17 14:43:00,36.0,29.0,29.99,ENE,76,0.0,3.0,74,0.00,,,0.00,,2013-01-17 21:43:00,
2013-01-17 14:53:00,36.0,27.0,29.98,ENE,60,1.0,6.0,70,0.00,,,0.00,,2013-01-17 21:53:00,
2013-01-17 15:03:00,37.0,28.0,29.98,NNE,12,2.0,7.0,70,0.00,,,0.00,,2013-01-17 22:03:00,
2013-01-17 15:12:00,37.0,28.0,29.98,NNE,12,2.0,7.0,70,0.00,,,0.00,,2013-01-17 22:12:00,
2013-01-17 15:23:00,38.0,27.0,29.98,SW,229,1.0,3.0,63,0.00,,,0.00,,2013-01-17 22:23:00,
2013-01-17 15:33:00,39.0,27.0,29.98,SW,215,5.0,7.0,63,0.00,,,0.00,,2013-01-17 22:33:00,
2013-01-17 15:42:00,39.0,27.0,29.98,SW,215,5.0,7.0,63,0.00,,,0.00,,2013-01-17 22:42:00,
2013-01-17 15:53:00,39.0,27.0,29.96,SW,228,3.0,9.0,61,0.00,,,0.00,,2013-01-17 22:53:00,
2013-01-17 16:03:00,39.0,27.0,29.96,SW,228,3.0,6.0,62,0.00,,,0.00,,2013-01-17 23:03:00,
2013-01-17 16:12:00,39.0,27.0,29.96,SW,228,3.0,6.0,62,0.00,,,0.00,,2013-01-17 23:12:00,
2013-01-17 16:22:00,36.0,26.0,29.96,SW,228,4.0,5.0,68,0.00,,,0.00,,2013-01-17 23:22:00,
2013-01-17 16:33:00,36.0,28.0,29.96,SW,228,3.0,5.0,71,0.00,,,0.00,,2013-01-17 23:33:00,
2013-01-17 16:42:00,36.0,28.0,29.96,SW,228,3.0,5.0,71,0.00,,,0.00,,2013-01-17 23:42:00,
2013-01-17 16:53:00,35.0,27.0,29.95,SW,228,3.0,3.0,72,0.00,,,0.00,,2013-01-17 23:53:00,
2013-01-17 17:02:00,35.0,27.0,29.95,SW,228,0.0,3.0,73,0.00,,,0.00,,2013-01-18 00:02:00,
2013-01-17 17:12:00,35.0,27.0,29.95,SW,228,0.0,3.0,73,0.00,,,0.00,,2013-01-18 00:12:00,
2013-01-17 17:23:00,34.0,26.0,29.95,SW,228,0.0,3.0,73,0.00,,,0.00,,2013-01-18 00:23:00,
2013-01-17 17:32:00,34.0,26.0,29.95,SW,228,0.0,3.0,73,0.00,,,0.00,,2013-01-18 00:32:00,
2013-01-17 17:42:00,34.0,27.0,29.95,SW,228,0.0,1.0,74,0.00,,,0.00,,2013-01-18 00:42:00,
2013-01-17 17:53:00,34.0,27.0,29.93,SW,228,2.0,3.0,75,0.00,,,0.00,,2013-01-18 00:53:00,
2013-01-17 18:02:00,34.0,27.0,29.93,SW,228,1.0,3.0,75,0.00,,,0.00,,2013-01-18 01:02:00,
2013-01-17 18:12:00,34.0,27.0,29.93,SW,228,1.0,3.0,75,0.00,,,0.00,,2013-01-18 01:12:00,
2013-01-17 18:22:00,34.0,27.0,29.92,SW,228,1.0,3.0,75,0.00,,,0.00,,2013-01-18 01:22:00,
2013-01-17 18:33:00,34.0,27.0,29.92,SW,228,2.0,3.0,75,0.00,,,0.00,,2013-01-18 01:33:00,
2013-01-17 18:42:00,34.0,27.0,29.92,SW,228,2.0,3.0,75,0.00,,,0.00,,2013-01-18 01:42:00,
2013-01-17 18:53:00,33.0,26.0,29.92,SW,228,0.0,3.0,75,0.00,,,0.00,,2013-01-18 01:53:00,
2013-01-17 19:02:00,33.0,26.0,29.90,SW,228,2.0,3.0,75,0.00,,,0.00,,2013-01-18 02:02:00,
2013-01-17 19:12:00,33.0,26.0,29.90,SW,228,2.0,3.0,75,0.00,,,0.00,,2013-01-18 02:12:00,
2013-01-17 19:22:00,33.0,26.0,29.89,SW,228,0.0,1.0,75,0.00,,,0.00,,2013-01-18 02:22:00,
2013-01-17 19:32:00,32.0,25.0,29.88,SW,228,1.0,2.0,76,0.00,,,0.00,,2013-01-18 02:32:00,
2013-01-17 19:42:00,32.0,25.0,29.88,SW,228,1.0,2.0,76,0.00,,,0.00,,2013-01-18 02:42:00,
2013-01-17 19:53:00,33.0,26.0,29.87,SW,228,3.0,5.0,75,0.00,,,0.00,,2013-01-18 02:53:00,
2013-01-17 20:02:00,33.0,26.0,29.87,SW,228,1.0,3.0,74,0.00,,,0.00,,2013-01-18 03:02:00,
2013-01-17 20:12:00,33.0,26.0,29.87,SW,228,1.0,3.0,74,0.00,,,0.00,,2013-01-18 03:12:00,
2013-01-17 20:22:00,34.0,26.0,29.85,SW,228,5.0,7.0,72,0.00,,,0.00,,2013-01-18 03:22:00,
2013-01-17 20:33:00,35.0,26.0,29.85,SW,228,3.0,5.0,69,0.00,,,0.00,,2013-01-18 03:33:00,
2013-01-17 20:42:00,35.0,26.0,29.85,SW,228,3.0,5.0,69,0.00,,,0.00,,2013-01-18 03:42:00,
2013-01-17 20:53:00,35.0,26.0,29.82,SW,228,3.0,5.0,68,0.00,,,0.00,,2013-01-18 03:53:00,
2013-01-17 21:02:00,35.0,26.0,29.82,SW,228,2.0,6.0,68,0.00,,,0.00,,2013-01-18 04:02:00,
2013-01-17 21:12:00,35.0,26.0,29.82,SW,228,2.0,6.0,68,0.00,,,0.00,,2013-01-18 04:12:00,
2013-01-17 21:22:00,36.0,26.0,29.82,SW,228,3.0,5.0,67,0.00,,,0.00,,2013-01-18 04:22:00,
2013-01-17 21:32:00,36.0,26.0,29.81,WSW,250,7.0,14.0,67,0.00,,,0.00,,2013-01-18 04:32:00,
2013-01-17 21:42:00,36.0,26.0,29.81,WSW,250,7.0,14.0,67,0.00,,,0.00,,2013-01-18 04:42:00,
2013-01-17 21:53:00,37.0,26.0,29.82,West,261,5.0,10.0,65,0.00,,,0.00,,2013-01-18 04:53:00,
2013-01-17 22:03:00,37.0,26.0,29.81,WSW,244,6.0,12.0,65,0.00,,,0.00,,2013-01-18 05:03:00,
2013-01-17 22:12:00,37.0,26.0,29.81,WSW,244,6.0,12.0,65,0.00,,,0.00,,2013-01-18 05:12:00,
2013-01-17 22:22:00,37.0,26.0,29.80,WSW,253,5.0,13.0,64,0.00,,,0.00,,2013-01-18 05:22:00,
2013-01-17 22:33:00,37.0,26.0,29.80,West,261,6.0,9.0,65,0.00,,,0.00,,2013-01-18 05:33:00,
2013-01-17 22:42:00,37.0,26.0,29.80,West,261,6.0,9.0,65,0.00,,,0.00,,2013-01-18 05:42:00,
2013-01-17 22:53:00,37.0,27.0,29.80,WSW,252,7.0,14.0,66,0.00,,,0.00,,2013-01-18 05:53:00,
2013-01-17 23:02:00,37.0,27.0,29.80,WSW,242,9.0,14.0,66,0.00,,,0.00,,2013-01-18 06:02:00,
2013-01-17 23:12:00,37.0,27.0,29.80,WSW,242,9.0,14.0,66,0.00,,,0.00,,2013-01-18 06:12:00,
2013-01-17 23:22:00,36.0,26.0,29.80,WSW,252,6.0,14.0,67,0.00,,,0.00,,2013-01-18 06:22:00,
2013-01-17 23:32:00,36.0,26.0,29.80,WSW,250,3.0,8.0,68,0.00,,,0.00,,2013-01-18 06:32:00,
2013-01-17 23:43:00,36.0,26.0,29.80,WSW,250,3.0,8.0,68,0.00,,,0.00,,2013-01-18 06:43:00,
2013-01-17 23:52:00,34.0,25.0,29.80,WSW,250,2.0,5.0,69,0.00,,,0.00,,2013-01-18 06:52:00,